Regional Weather Roundup
Issued by NWS

Home | Current Version | Previous Version | Graphics & Text | Print | Product List | Glossary Off
Versions: 1 2 3 4 5 6 7 8 9 10 11 12 13 14 15 16 17 18 19 20 21 22 23 24 25 26 27 28 29 30 31 32 33 34 35 36 37 38 39 40 41 42 43 44 45 46 47 48 49 50

836
ASUS43 KDTX 161001
RWRMI
MICHIGAN HOURLY REGIONAL WEATHER ROUNDUP
NATIONAL WEATHER SERVICE DETROIT/PONTIAC MI
500 AM EST MON JAN 16 2017

NOTE: "FAIR" INDICATES FEW OR NO CLOUDS BELOW 12,000 FEET WITH NO
SIGNIFICANT WEATHER AND/OR OBSTRUCTION TO VISIBILITY.

MIZ047>049-052>055-059>063-066>070-074>076-081>083-161100-
SOUTHEAST LOWER MICHIGAN

CITY           SKY/WX    TMP DP  RH WIND       PRES   REMARKS
ADRIAN         CLOUDY    23  21  92 CALM      30.32F
ALMA           CLOUDY    20  19  96 CALM      30.31F FOG
ANN ARBOR      CLOUDY    17  15  92 CALM      30.32F FOG
BAD AXE        CLOUDY    20  17  90 CALM      30.31R
CARO           CLOUDY    18  17  94 CALM      30.32R FOG
DETROIT CITY   CLOUDY    21  18  88 CALM      30.34S FOG
DETROIT        CLOUDY    21  17  84 CALM      30.34F FOG
FLINT          CLOUDY    18  16  92 CALM      30.32F FOG
GROSSE ILE     PTCLDY    22  20  92 CALM      30.34R FOG
HILLSDALE      CLOUDY    27  23  86 CALM      30.28F FOG
HOWELL         PTCLDY    21  18  88 CALM      30.30S

CITY           SKY/WX    TMP DP  RH WIND       PRES   REMARKS
JACKSON        MIX PCPN  20  17  88 CALM      30.30F
LAMBERTVILLE   PTCLDY    24  22  90 CALM      30.33F FOG
LANSING        CLOUDY    22  18  85 CALM      30.31F
LAPEER         FAIR      17  16  95 CALM      30.32F
MASON          CLOUDY    24  22  93 CALM      30.30F
MONROE         CLOUDY    23  22  96 CALM      30.33S FOG
MT. CLEMENS    CLOUDY    18  17  96 CALM      30.32F
PONTIAC        CLOUDY    18  14  84 CALM      30.30F FOG
PORT HOPE        N/A     24  20  84 SW5       30.28F WCI  18
PORT HURON     CLOUDY    16  14  93 CALM      30.34F FOG
TRI CITIES     CLOUDY    23  21  92 S7        30.32S FOG     WCI  15
MIDLAND        FAIR      17  14  88 CALM      30.31S
TROY           CLOUDY    22  19  89 CALM      30.35S
SAGINAW HB     PTCLDY    23  19  86 S5        30.31F WCI  17
$$
MIZ043>046-050>051-056>058-064>065-071>073-077>080-161100-
SOUTHWEST LOWER MICHIGAN

CITY           SKY/WX    TMP DP  RH WIND       PRES   REMARKS
BATTLE CREEK   CLOUDY    22  21  96 CALM      30.29F
BENTON HARBOR  CLOUDY    30  24  78 SE5       30.28F WCI  25
BIG RAPIDS     CLOUDY    12   9  89 CALM      30.28S
COLDWATER      CLOUDY    28  25  89 CALM      30.29F
FREMONT        FAIR      20  19  98 CALM      30.28F FOG
HOLLAND        CLOUDY    24  22  91 SE3       30.30S
GRAND RAPIDS   PTCLDY    22  18  85 CALM      30.30F FOG
IONIA          FAIR      22  20  93 CALM      30.30S
KALAMAZOO      CLOUDY    25  21  85 CALM      30.30S FOG
LUDINGTON      PTCLDY    19  18  98 CALM      30.27F FOG
MARSHALL       CLOUDY    23  20  89 CALM      30.29F
MOUNT PLEASANT PTCLDY    16  14  92 CALM      30.29S FOG
MUSKEGON       PTCLDY    23  21  92 SE3       30.30F FOG
SOUTH HAVEN    MOCLDY    26  24  90 CALM      30.29S
$$
MIZ016>042-161100-
NORTHERN LOWER MICHIGAN

CITY           SKY/WX    TMP DP  RH WIND       PRES   REMARKS
ALPENA         CLOUDY    23  16  74 SW7       30.23F WCI  15
BELLAIRE       CLOUDY     9   7  92 CALM      30.27S
CADILLAC       CLOUDY    10   6  87 CALM      30.24S FOG
CHARLEVOIX     PTCLDY    22  21  96 E5        30.25F WCI  16
FRANKFORT      CLOUDY    17  16  96 CALM      30.26S FOG
GAYLORD        CLOUDY    19  14  81 SW10      30.20F WCI   7
GRAYLING       CLOUDY     0  -4  84 CALM      30.25S
HARBOR SPRINGS CLOUDY    27  25  92 SW7       30.21F WCI  19
HOUGHTON LAKE  CLOUDY    15  13  91 W5        30.26S WCI   8
MANISTEE       CLOUDY    11   9  92 E3        30.28S
OSCODA         PTCLDY    15  12  88 SW5       30.26F WCI   8
PELLSTON       CLOUDY    28  22  78 SW10G20   30.20F WCI  19
ROGERS CITY    CLOUDY    26  19  77 SW14      30.20S WCI  14
TRAVERSE CITY  CLOUDY    21  18  88 CALM      30.25F
$$
MIZ007>008-015-161100-
EASTERN UPPER MICHIGAN

CITY           SKY/WX    TMP DP  RH WIND       PRES   REMARKS
KINROSS        CLEAR     27  23  85 SW10      30.16F WCI  17
MACKINAC ISLAN CLEAR     28  28 100 SW10      30.18S WCI  19
NEWBERRY       CLOUDY    20  16  86 SW13      30.15F WCI   7
S. S. MARIE    CLOUDY    26  20  77 CALM      30.14F
$$
MIZ004>006-011>014-085-161100-
CENTRAL UPPER MICHIGAN

CITY           SKY/WX    TMP DP  RH WIND       PRES   REMARKS
MANISTIQUE     CLOUDY    21  15  79 SW7       30.19S WCI  12
ESCANABA       CLOUDY     8   4  83 CALM      30.21S
SAWYER-GWINN   CLOUDY    17  10  73 SW8       30.14R WCI   7
$$
MIZ001>003-009>011-084-161100-
WESTERN UPPER MICHIGAN

CITY           SKY/WX    TMP DP  RH WIND       PRES   REMARKS
IRON MOUNTAIN  CLOUDY    17   8  67 CALM      30.15S
HOUGHTON       CLEAR     26  16  65 W21       30.09S WCI  12
COPPER HARBOR    N/A     29  21  72 W5        30.08S WCI  24
IRONWOOD       CLOUDY    21  16  81 S6        30.15F WCI  13
$$

ABBREVIATIONS USED IN REMARKS
   TC - TEMPERATURE IN CELSIUS
  WCI - WIND CHILL INDEX
   HX - HEAT INDEX
  VSB - VISIBILITY





USA.gov is the U.S. government's official web portal to all federal, state and local government web resources and services.